Home   Weather   Valdivia   Past weeks

Flag for Chile Past Weather in Valdivia, Chile — Yesterday and Last 2 Weeks

Now
63 °F

Passing clouds.


Feels Like: 63 °F
Forecast: N/A
Wind: 7 mph from Southeast

Location: Puerto Montt Airport

Current Time: Apr 30, 2017 at 7:53:41 pm

Latest Report: Apr 30, 2017 at 7:00 pm


Visibility: N/A

Pressure: 29.92 "Hg

Humidity: 77%

Dew Point: 55 °F

Location of ValdiviaLocation

Past Weather in Valdivia — Graph

°F

Valdivia Temperature Yesterday

Maximum temperature yesterday: 63 °F (at 5:00 pm)
Minimum temperature yesterday: 43 °F (at 2:00 am)
Average temperature yesterday: 53 °F

High & Low Weather Summary for the Past Weeks

 TemperatureHumidityPressure
High75 °F (Apr 16, 5:00 pm)100% (Apr 16, 12:00 am)30.21 "Hg (Apr 16, 12:00 am)
Low37 °F (Apr 25, 8:38 am)34% (Apr 16, 5:00 pm)29.83 "Hg (Apr 16, 1:00 am)
Average53 °F86%30.04 "Hg
* Reported Apr 15 6:00 pm — Apr 30 6:00 pm, Valdivia, Weather by CustomWeather, © 2017

Note: Actual official high and low records may vary slightly from our data, if they occured in-between our weather recording intervals... More about our weather records

Advertising

Valdivia Weather History for the Previous 24 Hours

Scroll right to see more
 ConditionsComfort  
Time TempWeatherWind HumidityBarometerVisibility
6:00 pm
Sun, Apr 30
68 °FSunny.No wind64%29.92 "Hg10 mi
5:00 pm70 °FPassing clouds.2 mph57%29.92 "HgN/A
4:00 pm70 °FPassing clouds.2 mph60%29.95 "HgN/A
3:00 pm68 °FPassing clouds.2 mph64%29.98 "HgN/A
1:00 pm66 °FPassing clouds.6 mph68%30.01 "HgN/A
12:00 pm63 °FPartly sunny.7 mph77%30.01 "HgN/A
11:00 am61 °FPartly sunny.5 mph83%30.04 "HgN/A
10:00 am57 °FPartly sunny.5 mph88%30.04 "HgN/A
9:00 am55 °FPartly sunny.3 mph94%30.04 "HgN/A
8:00 am57 °FPassing clouds.5 mph94%30.04 "HgN/A
7:00 am57 °FDrizzle. Overcast.7 mph94%30.04 "Hg5 mi
6:00 am57 °FDrizzle. Overcast.6 mph94%30.04 "Hg6 mi
5:00 am59 °FDrizzle. Overcast.7 mph88%30.04 "HgN/A
4:00 am59 °FOvercast.8 mph88%30.04 "HgN/A
3:00 am59 °FOvercast.7 mph88%30.07 "HgN/A
2:00 am59 °FOvercast.3 mph88%30.09 "HgN/A
1:00 am59 °FOvercast.6 mph88%30.09 "HgN/A
12:00 am59 °FOvercast.8 mph88%30.09 "HgN/A
11:00 pm
Sat, Apr 29
59 °FOvercast.9 mph88%30.09 "HgN/A
10:00 pm59 °FOvercast.9 mph88%30.09 "HgN/A
9:00 pm59 °FOvercast.10 mph88%30.12 "HgN/A
8:00 pm61 °FOvercast.10 mph83%30.09 "HgN/A
7:00 pm61 °FOvercast.9 mph83%30.09 "HgN/A
Weather by CustomWeather, © 2017

See weather overviewHow to use our weather pages